LEGION 3

Last updated on Mon Sep 07 2026 00:02:46 GMT+0000 (Coordinated Universal Time)

1 60452U 24146A 26249.58568758 .00002340 00000+0 13330-3 0 9990 2 60452 45.0025 314.1433 0008697 285.4865 74.5053 15.15982810114372
UTC large
Height (km)
Speed (km/s)
/
Latitude / Longitude
Inclination (degrees)
Orbital Period (minutes)
Azimuth
Elevation
Range (km)
Doppler Factor

Next 0 passes for location: London (51.5072 / 0.1276)

No passes found over London.
LEGION 3